This is the latest recevied weather packets stored in our database for station/object K0WOI. If no packets are shown the sender has not sent any weather packets the latest 1 day(s).
| Time | Temp. | Humidity | Pressure | Rain* | Wind** | Luminosity | Snow |
|---|---|---|---|---|---|---|---|
| 1778032984 | 11.11° C | 39% | 1011.8 hPa | 0 mm | 0.89 m/s, 317° | 0 W/m² | - |
| 1778032681 | 11.11° C | 37% | 1011.8 hPa | 0 mm | 1.34 m/s, 344° | 0 W/m² | - |
| 1778032379 | 11.67° C | 38% | 1011.6 hPa | 0 mm | 0.45 m/s, 325° | 0 W/m² | - |
| 1778032075 | 11.67° C | 38% | 1011.4 hPa | 0 mm | 0.89 m/s, 316° | 0 W/m² | - |
| 1778031772 | 11.67° C | 36% | 1011.5 hPa | 0 mm | 0.45 m/s, 348° | 0 W/m² | - |
| 1778031469 | 11.67° C | 36% | 1011.5 hPa | 0 mm | 1.34 m/s, 311° | 0 W/m² | - |
| 1778031166 | 11.67° C | 36% | 1011.4 hPa | 0 mm | 2.24 m/s, 331° | 0 W/m² | - |
| 1778030863 | 11.67° C | 38% | 1011.5 hPa | 0 mm | 0.89 m/s, 321° | 0 W/m² | - |
| 1778030559 | 11.67° C | 36% | 1011.3 hPa | 0 mm | 0.45 m/s, 307° | 0 W/m² | - |
| 1778030257 | 11.67° C | 36% | 1011.3 hPa | 0 mm | 0.45 m/s, 319° | 0 W/m² | - |
| 1778029953 | 11.67° C | 35% | 1010.9 hPa | 0 mm | 0.45 m/s, 322° | 1 W/m² | - |
| 1778029652 | 11.67° C | 35% | 1011 hPa | 0 mm | 0.45 m/s, 313° | 1 W/m² | - |
| 1778029348 | 11.67° C | 35% | 1011.3 hPa | 0 mm | 0.45 m/s, 318° | 3 W/m² | - |
| 1778029046 | 11.67° C | 36% | 1011 hPa | 0 mm | 0.45 m/s, 316° | 5 W/m² | - |
| 1778028742 | 11.67° C | 37% | 1010.6 hPa | 0 mm | 0.89 m/s, 312° | 7 W/m² | - |
| 1778028438 | 12.22° C | 34% | 1010.9 hPa | 0 mm | 2.24 m/s, 291° | 9 W/m² | - |
| 1778028136 | 12.22° C | 34% | 1010.9 hPa | 0 mm | 0.89 m/s, 307° | 11 W/m² | - |
| 1778027832 | 12.22° C | 35% | 1010.7 hPa | 0 mm | 0.45 m/s, 314° | 14 W/m² | - |
| 1778027528 | 12.22° C | 36% | 1010.8 hPa | 0 mm | 1.34 m/s, 281° | 16 W/m² | - |
| 1778027224 | 12.22° C | 35% | 1010.7 hPa | 0 mm | 1.34 m/s, 293° | 20 W/m² | - |
| 1778026920 | 12.22° C | 35% | 1010.5 hPa | 0 mm | 1.79 m/s, 283° | 23 W/m² | - |
| 1778026616 | 12.22° C | 34% | 1010.5 hPa | 0 mm | 2.24 m/s, 318° | 25 W/m² | - |
| 1778026314 | 12.78° C | 34% | 1010.7 hPa | 0 mm | 1.34 m/s, 313° | 29 W/m² | - |
| 1778026011 | 12.78° C | 33% | 1010.4 hPa | 0 mm | 1.34 m/s, 310° | 29 W/m² | - |
| 1778025708 | 12.78° C | 33% | 1010.6 hPa | 0 mm | 2.24 m/s, 283° | 35 W/m² | - |
* Rain latest hour (hover to see other rain measurements)
** Current wind speed in m/s (hover to see current wind gust speed)